Location: Newark
(14.1000°N, 87.2167°W)
Time: 04:21:16
(UTC+00:00)

N. Korean satellite - Pass Details

Date: 20 July 2019
Orbit: 457 x 507 km, 97.2° (Epoch: 20 August)

Event Time Altitude Azimuth Distance (km) Brightness Sun altitude
Rises 10:55:41 0° 32° (NNE) 2,593 11.3 -8.5°
Reaches altitude 10° 10:58:08 10° 48° (NE) 1,711 10.7 -7.9°
Maximum altitude 11:00:59 21° 99° (E) 1,168 9.3 -7.3°
Drops below altitude 10° 11:03:50 10° 150° (SSE) 1,710 9.4 -6.7°
Sets 11:06:16 0° 166° (SSE) 2,590 10.2 -6.1°
